Location: Lafig�re
(44.4503°N, 4.0357°E)
Time: 16:40:04
(UTC+00:00)

YAOGAN 1 - Pass Details

Date: 24 September 2020
Orbit: 618 x 620 km, 97.9° (Epoch: 26 October)

Event Time Altitude Azimuth Distance (km) Brightness Sun altitude
Rises 18:27:38 0° 170° (S) 2,884 5.8 -9.9°
Reaches altitude 10° 18:29:49 10° 172° (S) 1,982 5.0 -10.2°
Maximum altitude 18:34:08 75° 258° (WSW) 648 2.8 -11.0°
Drops below altitude 10° 18:38:28 10° 344° (NNW) 1,998 5.5 -11.8°
Sets 18:40:41 0° 346° (NNW) 2,908 6.4 -12.2°
